Weather Roundup
Issued by NWS

Home | Current Version | Previous Version | Graphics & Text | Print | Product List | Glossary Off
Versions: 1 2 3 4 5 6 7 8 9 10 11 12 13 14 15 16 17 18 19 20 21 22 23 24 25 26 27 28 29 30 31 32 33 34 35 36 37 38 39 40 41 42 43 44 45 46 47 48 49 50

000
NZUS93 KARX 060959
HRRWXR

CURRENT HOURLY OBSERVATIONS ACROSS
MUCH OF THE UPPER MISSISSIPPI VALLEY
NATIONAL WEATHER SERVICE LA CROSSE WI
500 AM CDT FRI MAY 06 2016


...SOUTHEAST MINNESOTA...


CITY           SKY/WX    TMP DP  RH WIND       PRES   REMARKS
ROCHESTER      CLEAR     58  40  51 W16       29.90S
ROCHESTER/MAYO FAIR      62  38  41 W15G23    29.89R
WINONA         CLEAR     48  43  81 NW3       29.89S
AUSTIN         CLEAR     57  39  51 W7        29.92R
ALBERT LEA     CLEAR     63  37  39 W9        29.92S
DODGE CENTER   PTCLDY    57  39  51 W13       29.90S
PRESTON        CLEAR     54  38  55 W9        29.91S
OWATONNA       CLEAR     57  39  51 SW8       29.91S
FARIBAULT      CLEAR     61  43  51 S3        29.90S
$$

...ELSEWHERE IN MINNESOTA...


CITY           SKY/WX    TMP DP  RH WIND       PRES   REMARKS
MINNEAPOLIS    PTCLDY    62  41  46 SW6       29.87S
INTNL FALLS    MOCLDY    67  42  40 W7        29.69F
DULUTH         CLEAR     66  41  40 W15       29.79R
RED WING       CLEAR     59  41  51 W7        29.86S
REDWOOD FALLS  CLEAR     56  41  57 S10       29.87F
MANKATO        CLEAR     59  39  47 SW12      29.90F
WORTHINGTON    CLEAR     58  42  55 SW16      29.93F
FAIRMONT       CLEAR     59  37  44 SW12      29.92F
$$

...SOUTHWEST WISCONSIN...


CITY           SKY/WX    TMP DP  RH WIND       PRES   REMARKS
LA CROSSE      PTCLDY    55  44  66 S6        29.89S
PRAIRIE DU CHI CLEAR     48  39  69 CALM      29.92F
BOSCOBEL       CLEAR     43  40  89 CALM      29.93F
LONE ROCK      NOT AVBL
PLATTEVILLE    CLEAR     50  39  64 S7        29.95S
FORT MC COY    CLEAR     42  39  90 CALM      29.90S FOG
MAUSTON-NEW LI MOSUNNY   54  39  57 CALM      29.88F
VIROQUA        FAIR      53  37  55 S7        29.91F
WIS DELLS      CLOUDY    52  38  58 SW6       29.91F
$$

...ELSEWHERE IN WISCONSIN...


CITY           SKY/WX    TMP DP  RH WIND       PRES   REMARKS
MILWAUKEE      MOCLDY    52  39  61 W3        29.94S
MADISON        CLOUDY    51  38  60 S6        29.94S
GREEN BAY      CLOUDY    49  42  77 S6        29.89F
EAU CLAIRE     NOT AVBL
BLACK RVR FLS  FAIR      40  39  96 CALM      29.87S
MEDFORD        CLEAR     53  39  59 SW7       29.86S
WAUSAU         CLEAR     54  40  59 S3        29.86S
WIS RAPIDS     CLEAR     49  38  65 S3        29.89F
MARSHFIELD     CLEAR     50  38  63 SW6       29.86F
RICE LAKE      CLEAR     47  42  80 CALM      29.86R
$$

...NORTHEAST IOWA...


CITY           SKY/WX    TMP DP  RH WIND       PRES   REMARKS
WATERLOO       CLEAR     53  39  59 SW10      29.94S
DUBUQUE        CLEAR     47  37  68 S8        29.96S
DECORAH        PTCLDY    54  37  54 S5        29.91F
MASON CITY     CLEAR     58  41  53 W15       29.95S
CHARLES CITY   CLEAR     52  39  62 SW8       29.93S
OELWEIN        CLEAR     48  39  71 SW7       29.95S
$$

...ELSEWHERE IN IOWA...


CITY           SKY/WX    TMP DP  RH WIND       PRES   REMARKS
DES MOINES     CLEAR     52  41  66 S6        29.99S
IOWA CITY      CLEAR     46  42  86 CALM      29.99S
FORT DODGE     CLEAR     52  39  62 CALM      29.97S
MARSHALLTOWN   CLEAR     50  40  68 SW9       29.96S
CEDAR RAPIDS   CLEAR     50  38  63 S5        29.96S
$$

...NORTHERN ILLINOIS...


CITY           SKY/WX    TMP DP  RH WIND       PRES   REMARKS
CHICAGO-OHARE  CLOUDY    48  42  80 W8        29.96S
CHICAGO-MIDWAY CLOUDY    49  40  71 SW7       29.98R
MOLINE         CLEAR     44  39  82 CALM      29.98S
ROCKFORD       MOCLDY    47  40  76 S3        29.99S
PEORIA         CLEAR     44  39  82 CALM      30.01S
$$

NOTE: "FAIR" INDICATES FEW OR NO CLOUDS BELOW 12,000 FEET WITH NO
SIGNIFICANT WEATHER AND/OR OBSTRUCTIONS TO VISIBILITY. WIND
SPEEDS ARE IN MILES-PER-HOUR.




USA.gov is the U.S. government's official web portal to all federal, state and local government web resources and services.